www.pogodaiklimat.ru

Погода и климат >> Архив погоды >> Россия >> Дагестан >> Дербент


ПОГОДА в Дербенте

АРХИВ ПОГОДЫ в Дербенте

Время (UTC), дата Ветер
(напр.,м/с)
 
Видим.   Явления Облачность Т
(С)
Тd
(С)
f
(%)
Тe
(С)
Тes
(С)
Комфортность P
(гПа)
Po
(гПа)
Тmin
(С)
Tmax
(С)
R
(мм)
R24
(мм)
S
(см)
00 18.05 штиль 0 10 км ясно +13.8 +7.7 67 +14 +14 по сезону 1017.8 1020.0
03 18.05 штиль 0 20 км ясно +16.0 +9.9 67 +16 +18 по сезону 1017.6 1019.8 +12.9
06 18.05 ЮВ 3 20 км ясно +20.4 +10.3 52 +22 +33 комфорт 1017.4 1019.5
09 18.05 В 2 20 км ясно +21.8 +15.8 69 +25 +45 комфорт 1016.6 1018.7
12 18.05 В 2 20 км ясно +21.6 +16.2 71 +25 +36 комфорт 1015.6 1017.7
15 18.05 С 1 20 км ясно +20.3 +16.0 76 +24 +25 комфорт 1014.8 1016.9 +22.3
18 18.05 СЗ 1 10 км ясно +17.5 +15.2 86 +19 +19 тепло 1014.7 1016.8
21 18.05 штиль 0 10 км ясно +16.3 +14.5 89 +16 +16 по сезону 1014.4 1016.5
00 19.05 Ю 1 10 км ясно +15.2 +12.1 82 +16 +16 тепло 1014.1 1016.2
03 19.05 штиль 0 20 км ясно +18.4 +14.8 80 +19 +21 тепло 1014.8 1016.9 +14.8
06 19.05 ЮВ 2 20 км ясно +23.0 +9.3 42 +25 +37 комфорт 1015.4 1017.5
09 19.05 СВ 2 20 км 3/0
[Ci fib]
+23.3 +16.0 64 +28 +46 душно 1015.8 1017.9
12 19.05 С 2 20 км 3/0
[Ci fib]
+23.7 +16.6 64 +27 +37 жарко 1015.0 1017.1
15 19.05 В 2 20 км ясно +20.8 +16.4 76 +25 +26 комфорт 1014.1 1016.2 +25.2
18 19.05 С 1 10 км ясно +18.6 +15.4 82 +21 +21 комфорт 1014.5 1016.6
21 19.05 СЗ 3 10 км ясно +20.2 +12.3 60 +22 +22 комфорт 1013.6 1015.8
00 20.05 штиль 0 10 км ясно +17.2 +13.8 80 +17 +17 тепло 1013.3 1015.4
03 20.05 ЮВ 1 20 км ясно +19.7 +11.9 61 +22 +24 комфорт 1013.1 1015.2 +16.6
06 20.05 В 3 20 км ясно +22.5 +15.8 66 +27 +37 душно 1013.0 1015.1
09 20.05 СВ 1 20 км 9/0
[Ac trans Ci sp]
+23.8 +16.4 63 +27 +42 жарко 1012.3 1014.4
12 20.05 С 4 20 км 9/6 300 м
[Cb cap Ac cuf]
+25.4 +13.7 48 +28 +29 жарко 1011.9 1014.0
15 20.05 С 2
{10}
20 км 9/8 300 м
[Cb cap Ac cuf]
+24.3 +13.6 51 +27 +27 жарко 1011.1 1013.2 +26.7
18 20.05 штиль 0 10 км 8/5 300 м
[Cb cap Ac cuf]
+21.0 +15.0 69 +24 +24 комфорт 1012.0 1014.1
21 20.05 ЮВ 1 10 км 8/0
[Ac trans]
+20.7 +14.9 69 +25 +25 комфорт 1011.7 1013.8
00 21.05 ЮВ 1 10 км 8/0
[Ac trans]
+19.1 +15.8 81 +22 +22 комфорт 1011.5 1013.6
03 21.05 штиль 0 20 км 8/5 600 м
[Sc Ac trans]
+19.8 +16.6 82 +22 +23 комфорт 1012.1 1014.2 +18.7
06 21.05 СВ 1 20 км 8/0
[Ac trans]
+24.0 +16.0 61 +27 +35 жарко 1012.6 1014.7
09 21.05 В 1 20 км 9/4 600 м
[Sc Ac trans Ci sp]
+24.7 +15.6 57 +28 +36 душно 1013.1 1015.2
12 21.05 В 1 20 км 9/3 600 м
[Sc Ac trans Ci fib]
+24.5 +16.2 60 +28 +33 душно 1012.8 1014.8
15 21.05 С 3 20 км 9/3 600 м
[Sc Ac trans Ci fib]
+23.3 +17.8 71 +29 +29 душно 1013.3 1015.4 +25.9
18 21.05 СЗ 3 10 км 8/5 600 м
[Sc Ac trans]
+25.3 +13.2 47 +27 +27 жарко 1014.9 1017.0
21 21.05 СЗ 4 10 км 8/3 600 м
[Sc Ac trans]
+22.2 +16.6 71 +27 +27 душно 1015.8 1017.9
00 22.05 СЗ 2
{10}
10 км 6/6 600 м
[Sc Ac trans]
+22.3 +13.9 59 +25 +25 комфорт 1017.1 1019.2
03 22.05 Ю 1 20 км 8/5 600 м
[Sc Ac trans]
+21.3 +15.7 70 +25 +25 комфорт 1019.2 1021.3 +20.3
06 22.05 СВ 2 20 км 8/6 600 м
[Sc Ac trans]
+24.5 +16.7 62 +28 +32 душно 1019.9 1022.0
09 22.05 С 2 20 км 8/0
[Ac trans Ci fib]
+26.6 +16.3 53 +30 +43 душно 1019.7 1021.8
12 22.05 В 1 20 км 6/0
[Ac trans Ci fib]
+23.6 +15.7 61 +27 +36 жарко 1019.9 1022.0
15 22.05 ЮВ 1 20 км 9/0
[Ac trans Ci fib]
+22.1 +16.0 68 +26 +27 душно 1019.4 1021.5 +28.2
18 22.05 штиль 0 10 км 4/0
[Ac trans]
+20.1 +14.8 72 +22 +22 комфорт 1019.4 1021.5
21 22.05 штиль 0 10 км ясно +18.7 +14.7 78 +20 +20 тепло 1019.2 1021.3
00 23.05 Ю 1 10 км ясно +17.8 +14.5 81 +19 +19 тепло 1019.5 1021.6
03 23.05 штиль 0 20 км ясно +20.4 +16.2 77 +23 +26 комфорт 1019.2 1021.3 +17.4
06 23.05 В 2 20 км ясно +25.7 +17.1 59 +30 +42 душно 1019.2 1021.3
09 23.05 ЮВ 3 20 км ясно +27.5 +14.8 46 +30 +46 жарко 1018.5 1020.6
12 23.05 ЮВ 4 20 км ясно +28.7 +8.5 28 +28 +36 жарко 1018.2 1020.2
15 23.05 ЮВ 3 20 км ясно +23.8 +15.3 59 +27 +28 жарко 1017.0 1019.1 +28.9
18 23.05 ЮВ 2 10 км ясно +22.2 +12.8 55 +25 +25 комфорт 1016.5 1018.6
21 23.05 Ю 2 10 км ясно +18.8 +11.8 64 +20 +20 тепло 1015.7 1017.8
00 24.05 ЮВ 2 10 км ясно +17.6 +12.2 71 +18 +18 тепло 1015.5 1017.7
03 24.05 С 1 20 км ясно +19.8 +9.3 51 +22 +24 комфорт 1015.1 1017.2 +16.6
06 24.05 ЮВ 3 20 км ясно +23.4 +13.9 55 +27 +38 душно 1015.0 1017.1
09 24.05 ЮВ 3 20 км ясно +24.8 +16.6 60 +28 +45 жарко 1013.8 1015.9
12 24.05 ЮВ 4 20 км ясно +24.7 +15.9 58 +28 +35 душно 1012.0 1014.1
15 24.05 ЮВ 4
{10}
20 км 3/0
[Ci fib]
+22.7 +14.6 60 +26 +27 жарко 1010.5 1012.6 +25.7
18 24.05 ЮВ 4 10 км ясно +22.0 +14.6 63 +25 +25 комфорт 1010.4 1012.5
21 24.05 Ю 2 10 км ясно +23.3 +10.4 44 +25 +25 комфорт 1009.3 1011.4

 

Местоположение метеостанции Дербент (Дагестан, Россия): широта 42.07 долгота 48.30 высота над уровнем моря -17 м.

В архиве по умолчанию представлена погода в Дербенте за последнюю неделю. Архивные данные за месяц целиком и за предыдущие месяцы, начиная с января 2011 года, Вы можете получить, выбрав интересующий диапазон дат из раскрывающегося списка и нажав кнопку "Ввод!".


*Определитесь, кто Вы:
робот инопланетянин человек

Внимание! Время в таблицах - всемирное. Для получения местного времени необходимо прибавить поправку, которая в Дербенте равна 3 ч.

Смотрите также архив погоды в соседних городах и на ближайших метеорологических станциях:

Погода в Касумкенте (Дагестан, Россия) (46 км)
Погода в Изберге (Дагестан, Россия) (60 км)
Погода в Сергокале (Дагестан, Россия) (67 км)
Погода в Губе (Азербайджан) (80 км)
Погода в Ахты (Дагестан, Россия) (81 км)
Погода в Кумухе (Дагестан, Россия) (98 км)
Погода в Куппе (Дагестан, Россия) (107 км)
Погода в Гунибе (Дагестан, Россия) (116 км)
Погода в Махачкале (Дагестан, Россия) (125 км)
Погода в Габале (Азербайджан) (126 км)

Пояснения к столбцам:

Ветер - указаны скорость ветра в м/с - средняя за 10 мин, порывы в срок и между сроками (в фигурных скобках) и направление, откуда дует ветер: С - северный, СВ - северо-восточный, В - восточный, ЮВ - юго-восточный, Ю - южный, ЮЗ - юго-западный, З - западный, СЗ - северо-западный.
Видимость - горизонтальная дальность видимости в метрах или километрах. При видимости от 1 до 10 км при отсутствии осадков обычно наблюдается дымка, при ухудшении видимости до 1 км и менее - туман. В сухую погоду видимость может ухудшаться дымом, пылью или мглою.
Явления - указаны атмосферные явления, наблюдавшиеся в срок или в последний час перед сроком; фигурными скобками обозначены явления, наблюдавшиеся между сроками (за 1-3 часа до срока); квадратными скобками обозначены град или гололедные отложения с указанием их диаметра в мм.
Облачность - указаны через наклонную черту общая и нижняя облачность в баллах и высота нижней границы облаков в метрах; квадратными скобками обозначены формы облаков: Ci - перистые, Cs - перисто-слоистые, Cc - перисто-кучевые, Ac - высококучевые, As - высокослоистые, Sc - слоисто-кучевые, Ns - слоисто-дождевые, Cu - кучевые, Cb - кучево-дождевые. Подробнее классификацию облаков см. в Атласе облаков (PDF).
T - Температура воздуха - температура, измеренная на высоте 2 м над землей.
Td - Температура точки росы - температура, при понижении до которой содержащийся в воздухе водяной пар достигнет насыщения.
f - Относительная влажность воздуха - влажноcть воздуха, измеренная на высоте 2 м над землей.
Te - Эффективная температура - температура, которую ощущает одетый по сезону человек в тени. Характеристика душности погоды. При расчете учитывается влияние влажности воздуха и скорости ветра на теплоощущения человека.
Tes - Эффективная температура на солнце - температура, которую ощущает человек, с поправкой на солнечный нагрев. Характеристика знойности погоды. Зависит от высоты солнца над горизонтом, облачности и скорости ветра. Ночью, в пасмурную погоду, а также при ветре 12 м/с и более поправка равна нулю.
P - Атмосферное давление - приведенное к уровню моря атмосферное давление.
Po - Атмосферное давление - измеренное на уровне метеостанции атмосферное давление.
Tmin - Минимальная температура - минимум температуры воздуха на высоте 2 м над землей.
Tmax - Максимальная температура - максимум температуры воздуха на высоте 2 м над землей.
R - Количество осадков - Количество выпавших осадков за период времени, мм. При наведении курсора мыши на число - период времени, за который выпало указанное количество осадков.
R24 - Количество осадков - Количество выпавших осадков за 24 часа, мм.
S - Снежный покров - Высота снежного покрова, см. При наведении курсора мыши на число - состояние снежного покрова и степень покрытия местности в баллах.